Location: High Point State Park
(41.2941°N, 74.6906°W)
Time: 05:19:43
(UTC-04:00)

Hubble Space Telescope - Visible Passes

Search period start: 26 March 2017 00:00
Search period end: 05 April 2017 00:00
Orbit: 538 x 542 km, 28.5° (Epoch: 24 March)

Date Brightness Start Highest point End Pass type
(mag) Time Alt. Az. Time Alt. Az. Time Alt. Az.
28 Mar 3.2 05:05:31 10° S 05:05:48 10° SSE 05:06:37 10° SSE visible
29 Mar 3.2 04:56:01 12° SSE 04:56:01 12° SSE 04:57:07 10° SSE visible
30 Mar 3.2 04:46:30 12° SSE 04:46:30 12° SSE 04:47:19 10° SSE visible
31 Mar 3.3 04:37:01 11° SSE 04:37:01 11° SSE 04:37:22 10° SSE visible
31 Mar 3.0 06:14:12 10° SSW 06:15:48 12° S 06:17:25 10° SSE visible
01 Apr 3.1 06:04:33 10° SSW 06:05:39 11° S 06:06:46 10° S visible
